Tracking 19827 objects as of 22-Aug-2019
HD Live streaming from Space Station
objects crossing your sky now

COSMOS 2251 DEB

Track COSMOS 2251 DEB now!
10-day predictions


NORAD ID: 36372
Int'l Code: 1993-036AYZ
Perigee: 723.6 km
Apogee: 784.3 km
Inclination: 74.0 °
Period: 99.8 minutes
Semi major axis: 7124 km
RCS: 0.0134 m2 (small)
Launch date: June 16, 1993
Source: Commonwealth of Independent States (former USSR) (CIS)
Launch site: PLESETSK MISSILE AND SPACE COMPLEX (PKMTR)

Note: This is SATELLITE DEBRIS
aabbcc
Your satellite tracking list
Your tracking list is empty




NASA's NSSDC Master Catalog

Two Line Element Set (TLE):
1 36372U 93036AYZ 19233.17058078 +.00000998 +00000-0 +29920-3 0  9997
2 36372 074.0137 186.0988 0042558 079.4355 281.1592 14.43549429322451
Source of the keplerian elements: AFSPC